Location: Charbonni�res
(45.9952°N, 2.9982°E)
Time: 14:40:19
(UTC+00:00)

USA 306 - Pass Details

Date: 29 November 2020
Orbit: 565 x 579 km, 54.0° (Epoch: 22 January)

Event Time Altitude Azimuth Distance (km) Brightness Sun altitude
Exits shadow 05:49:10 17° 318° (NW) 1,508 4.5 -13.2°
Maximum altitude 05:51:56 33° 14° (NNE) 987 4.1 -12.7°
Drops below altitude 10° 05:55:51 10° 79° (E) 1,894 6.6 -12.1°
Sets 05:58:17 0° 89° (E) 2,791 7.9 -11.7°
